This is the latest recevied weather packets stored in our database for station/object AC1IX. If no packets are shown the sender has not sent any weather packets the latest 10 day(s).
| Time | Temp. | Humidity | Pressure | Rain* | Wind** | Luminosity | Snow |
|---|---|---|---|---|---|---|---|
| 1777759694 | 9.44° C | 52% | 1012.1 hPa | 0 mm | - | 67 W/m² | - |
| 1777759389 | 9.44° C | 50% | 1011.9 hPa | 0 mm | - | 45 W/m² | - |
| 1777759086 | 9.44° C | 50% | 1011.8 hPa | 0 mm | - | 45 W/m² | - |
| 1777758783 | 10° C | 47% | 1012 hPa | 0 mm | - | 88 W/m² | - |
| 1777758480 | 10° C | 48% | 1011.6 hPa | 0 mm | - | 62 W/m² | - |
| 1777758176 | 10° C | 47% | 1011.8 hPa | 0 mm | - | 126 W/m² | - |
| 1777757874 | 10.56° C | 50% | 1011.9 hPa | 0 mm | - | 139 W/m² | - |
| 1777757571 | 10.56° C | 47% | 1011.6 hPa | 0 mm | - | 134 W/m² | - |
| 1777757270 | 11.11° C | 51% | 1011.7 hPa | 0 mm | - | 182 W/m² | - |
| 1777756968 | 11.11° C | 48% | 1011.7 hPa | 0 mm | - | 223 W/m² | - |
| 1777756663 | 11.67° C | 46% | 1011.5 hPa | 0 mm | - | 293 W/m² | - |
| 1777756360 | 11.11° C | 47% | 1011.5 hPa | 0 mm | - | 293 W/m² | - |
| 1777756057 | 11.11° C | 48% | 1011.6 hPa | 0 mm | - | 319 W/m² | - |
| 1777755755 | 11.11° C | 48% | 1011.5 hPa | 0 mm | - | 331 W/m² | - |
| 1777755452 | 11.11° C | 47% | 1011.5 hPa | 0 mm | - | 356 W/m² | - |
| 1777755148 | 11.11° C | 47% | 1011.6 hPa | 0 mm | - | 379 W/m² | - |
| 1777754845 | 11.11° C | 45% | 1011.6 hPa | 0 mm | - | 383 W/m² | - |
| 1777754543 | 11.11° C | 47% | 1011.4 hPa | 0 mm | - | 292 W/m² | - |
| 1777754240 | 11.11° C | 50% | 1011.5 hPa | 0 mm | - | 66 W/m² | - |
| 1777753939 | 11.11° C | 46% | 1011.7 hPa | 0 mm | - | 72 W/m² | - |
| 1777753638 | 10.56° C | 47% | 1011.6 hPa | 0 mm | - | 60 W/m² | - |
| 1777753336 | 11.67° C | 48% | 1011.7 hPa | 0 mm | - | 399 W/m² | - |
| 1777753034 | 11.67° C | 51% | 1011.6 hPa | 0 mm | - | 497 W/m² | - |
| 1777752730 | 10.56° C | 53% | 1011.6 hPa | 0 mm | - | 542 W/m² | - |
| 1777752426 | 10.56° C | 59% | 1011.5 hPa | 0 mm | - | 142 W/m² | - |
* Rain latest hour (hover to see other rain measurements)
** Current wind speed in m/s (hover to see current wind gust speed)